Temp
-3 -3 -2 -2 -1 -1 -1 -0 -0 -0 0 0 1 1 1 1 1 1 1 2 2 2 2 2 2 2 2 1 2 2 1 1 1 1 1 1 1 0 1 0 -0 -1 -2 -2 -3 -3 -3 -2 -3 -3 -3 -4 -4 -4
-3 -3 -2 -2 -1 -1 -1 -1 -0 -0 -0 0 0 1 1 1 1 1 1 1 1 1 2 2 2 1 1 1 0 1 0 1 1 1 1 1 1 0 0 -1 -0 -1 -1 -2 -2 -2 -1 -3 -3 -3 -4 -3 -4 -5
-3 -3 -3 -3 -2 -2 -1 -1 -1 -0 -0 -0 0 0 0 0 1 1 1 1 1 1 1 1 1 1 1 1 1 1 1 1 1 1 1 -0 -0 0 -0 -0 -0 -0 -1 -2 -3 -2 -3 -3 -3 -3 -3 -5 -5 -5
-4 -4 -3 -3 -3 -2 -2 -1 -1 -1 -1 -0 -0 -0 0 0 0 0 0 0 0 1 0 1 1 1 1 1 1 1 0 0 0 -0 -0 -1 -1 -1 -1 -0 -1 -1 -2 -2 -3 -3 -3 -4 -4 -4 -4 -5 -5 -5
-4 -4 -3 -4 -3 -2 -2 -2 -2 -1 -1 -1 -1 -1 -0 -0 -0 0 0 0 0 0 -0 0 0 0 0 0 0 -0 -0 -0 -0 -1 -1 -1 -1 -1 -1 -2 -1 -0 -2 -3 -3 -3 -4 -4 -4 -5 -5 -5 -6 -7
-5 -5 -5 -4 -3 -3 -3 -2 -2 -2 -2 -2 -1 -1 -1 -1 -0 -1 -1 -0 -0 -0 -0 -1 -0 0 -0 -0 -1 -0 -1 -1 -1 -1 -1 -2 -2 -2 -3 -2 -1 -2 -2 -2 -4 -3 -4 -4 -5 -5 -5 -6 -7 -7
-5 -5 -5 -4 -4 -3 -3 -3 -3 -2 -2 -2 -2 -1 -1 -1 -1 -1 -1 -0 -1 -1 -1 -1 -1 -1 -1 -1 -1 -1 -1 -1 -1 -2 -2 -2 -2 -3 -3 -2 -1 -2 -2 -2 -3 -4 -4 -4 -5 -6 -6 -7 -8 -8
-6 -5 -5 -5 -4 -4 -3 -3 -3 -3 -2 -2 -2 -2 -2 -2 -1 -2 -2 -2 -1 -1 -2 -2 -2 -1 -1 -1 -1 -1 -1 -2 -2 -2 -2 -2 -3 -4 -4 -2 -3 -3 -3 -3 -4 -4 -5 -6 -6 -7 -7 -8 -8 -9
-6 -5 -5 -5 -4 -4 -4 -3 -3 -3 -3 -3 -3 -3 -2 -2 -2 -2 -2 -2 -2 -2 -3 -3 -2 -2 -2 -1 -1 -2 -2 -2 -2 -2 -2 -3 -4 -4 -3 -3 -3 -3 -4 -4 -5 -5 -6 -7 -7 -7 -8 -9 -9 -10
-7 -6 -5 -5 -4 -4 -4 -4 -4 -3 -3 -3 -3 -3 -3 -3 -3 -3 -4 -3 -3 -3 -3 -3 -3 -3 -3 -2 -2 -2 -3 -3 -3 -3 -3 -4 -3 -3 -2 -3 -4 -4 -5 -5 -6 -6 -7 -7 -7 -8 -9 -9 -10 -10
-7 -7 -6 -5 -5 -4 -4 -4 -4 -4 -4 -3 -4 -4 -3 -4 -4 -4 -4 -4 -4 -4 -3 -3 -4 -4 -4 -4 -3 -3 -4 -4 -4 -4 -5 -5 -5 -3 -3 -3 -4 -4 -5 -6 -6 -7 -7 -8 -8 -9 -9 -10 -10 -10
-8 -8 -7 -6 -5 -5 -4 -4 -4 -4 -4 -4 -4 -4 -3 -4 -4 -3 -4 -4 -4 -4 -3 -3 -3 -4 -5 -4 -4 -4 -4 -5 -5 -5 -6 -6 -5 -3 -4 -4 -4 -5 -6 -6 -7 -7 -8 -9 -9 -10 -10 -10 -10 -11
-9 -9 -8 -8 -7 -6 -5 -4 -4 -5 -5 -4 -4 -4 -4 -4 -4 -4 -4 -4 -4 -3 -4 -4 -4 -4 -4 -4 -4 -4 -5 -6 -6 -6 -6 -6 -4 -4 -5 -5 -5 -6 -6 -7 -8 -9 -9 -10 -10 -10 -10 -11 -11 -11
-10 -9 -9 -9 -8 -7 -6 -6 -6 -6 -6 -6 -6 -5 -5 -6 -6 -6 -5 -4 -4 -5 -4 -5 -5 -4 -5 -5 -6 -6 -6 -7 -7 -8 -6 -5 -5 -5 -6 -6 -6 -7 -8 -9 -9 -10 -10 -10 -10 -10 -11 -11 -11 -12
-10 -9 -9 -9 -9 -8 -8 -7 -7 -7 -7 -7 -6 -7 -8 -8 -7 -7 -7 -6 -6 -6 -6 -6 -6 -7 -7 -7 -7 -7 -7 -7 -8 -7 -6 -5 -6 -6 -6 -7 -8 -9 -9 -10 -10 -10 -10 -10 -11 -11 -11 -11 -12 -12
-10 -10 -9 -9 -9 -8 -8 -8 -8 -8 -8 -7 -8 -8 -8 -8 -8 -8 -8 -8 -8 -8 -8 -8 -7 -8 -8 -7 -7 -7 -8 -8 -7 -7 -7 -7 -7 -8 -8 -9 -10 -10 -10 -10 -10 -10 -11 -11 -11 -11 -11 -12 -12 -13
-10 -10 -10 -9 -9 -9 -9 -8 -8 -8 -9 -9 -9 -9 -9 -9 -8 -8 -8 -8 -8 -8 -8 -8 -8 -9 -8 -8 -8 -8 -8 -8 -7 -8 -8 -8 -9 -9 -10 -10 -10 -10 -10 -10 -11 -11 -11 -11 -12 -12 -12 -13 -13 -13
-10 -10 -10 -10 -9 -9 -10 -9 -9 -9 -9 -9 -9 -9 -9 -9 -9 -9 -9 -9 -9 -9 -9 -9 -9 -8 -8 -8 -8 -8 -8 -8 -9 -9 -9 -9 -10 -10 -10 -10 -10 -11 -11 -11 -11 -11 -12 -12 -12 -13 -13 -13 -14 -14
-11 -10 -10 -10 -10 -9 -9 -9 -9 -9 -9 -9 -10 -9 -9 -9 -9 -9 -9 -9 -9 -9 -9 -9 -9 -9 -9 -9 -9 -9 -9 -10 -10 -10 -10 -10 -11 -11 -11 -11 -11 -11 -11 -12 -12 -12 -12 -13 -13 -14 -14 -14 -14 -14
-11 -10 -10 -10 -10 -10 -10 -10 -9 -9 -9 -9 -9 -9 -9 -9 -9 -9 -9 -9 -9 -9 -10 -10 -10 -10 -10 -10 -11 -11 -10 -10 -11 -11 -11 -11 -11 -11 -11 -12 -12 -12 -12 -12 -13 -13 -13 -13 -14 -14 -14 -14 -14 -14
-11 -11 -10 -10 -10 -10 -10 -10 -10 -9 -9 -9 -9 -9 -9 -9 -9 -9 -10 -10 -10 -11 -10 -10 -11 -11 -11 -11 -11 -11 -11 -11 -11 -11 -11 -11 -11 -11 -12 -12 -12 -13 -13 -13 -13 -14 -14 -14 -14 -14 -14 -14 -15 -15
-11 -11 -10 -10 -10 -11 -11 -10 -9 -9 -9 -9 -9 -9 -9 -10 -10 -10 -10 -10 -10 -10 -11 -11 -11 -11 -11 -11 -11 -11 -11 -11 -11 -11 -11 -12 -12 -12 -12 -13 -13 -14 -14 -14 -14 -15 -14 -14 -14 -14 -15 -15 -15 -15
-12 -11 -11 -10 -11 -10 -10 -10 -10 -10 -10 -10 -10 -10 -10 -10 -10 -10 -11 -10 -10 -11 -11 -11 -11 -11 -11 -12 -12 -12 -12 -12 -12 -12 -12 -12 -13 -13 -13 -14 -14 -15 -15 -14 -15 -15 -14 -14 -14 -14 -15 -15 -15 -15
-11 -11 -11 -11 -11 -11 -11 -10 -10 -10 -10 -10 -10 -11 -11 -11 -11 -11 -11 -11 -11 -11 -11 -11 -11 -12 -12 -12 -12 -12 -12 -12 -13 -13 -13 -14 -14 -14 -15 -15 -15 -15 -15 -15 -15 -15 -14 -15 -15 -14 -14 -14 -15 -15
-11 -11 -11 -11 -11 -10 -10 -10 -10 -10 -11 -11 -12 -12 -12 -12 -12 -12 -11 -11 -11 -11 -11 -11 -12 -12 -12 -12 -13 -13 -13 -13 -13 -14 -14 -14 -15 -15 -15 -15 -15 -15 -15 -15 -15 -15 -14 -15 -15 -15 -15 -15 -15 -15
-12 -11 -11 -11 -10 -10 -10 -11 -11 -11 -11 -12 -12 -12 -12 -12 -13 -12 -12 -12 -12 -12 -12 -13 -13 -13 -13 -14 -14 -14 -14 -14 -14 -15 -15 -15 -15 -16 -16 -16 -15 -15 -15 -15 -15 -15 -15 -15 -15 -15 -15 -15 -15 -15
-11 -11 -10 -10 -11 -11 -11 -11 -11 -12 -12 -12 -12 -12 -13 -13 -12 -13 -12 -12 -13 -13 -13 -14 -14 -14 -14 -15 -15 -15 -15 -15 -15 -15 -15 -15 -16 -16 -16 -16 -16 -16 -16 -15 -15 -15 -15 -15 -15 -15 -15 -16 -16 -16
-11 -11 -11 -11 -12 -12 -12 -12 -12 -12 -12 -12 -13 -13 -13 -13 -13 -13 -13 -13 -14 -14 -14 -15 -15 -15 -15 -15 -15 -15 -15 -15 -15 -15 -15 -16 -17 -17 -17 -17 -16 -16 -16 -16 -16 -16 -16 -16 -16 -16 -16 -16 -16 -16
-12 -12 -12 -12 -12 -12 -12 -12 -13 -13 -13 -13 -13 -13 -14 -14 -14 -14 -14 -14 -15 -15 -15 -15 -15 -15 -15 -16 -16 -16 -16 -16 -15 -15 -15 -16 -16 -17 -17 -17 -17 -17 -17 -17 -17 -17 -17 -16 -16 -17 -17 -17 -17 -17
-12 -12 -13 -13 -13 -13 -13 -13 -13 -13 -14 -14 -14 -14 -14 -14 -14 -15 -15 -15 -15 -15 -15 -15 -16 -16 -16 -16 -16 -17 -16 -16 -16 -16 -16 -16 -16 -17 -17 -17 -17 -17 -17 -17 -17 -17 -17 -17 -17 -17 -17 -17 -17 -17
-13 -13 -13 -13 -13 -13 -14 -14 -14 -14 -14 -14 -15 -15 -15 -15 -15 -15 -15 -15 -15 -16 -16 -16 -16 -17 -17 -17 -17 -18 -18 -18 -17 -17 -17 -17 -17 -17 -17 -18 -18 -18 -18 -18 -18 -18 -18 -18 -18 -18 -18 -18 -18 -18
-14 -14 -14 -14 -14 -14 -14 -14 -15 -15 -14 -15 -15 -15 -15 -15 -15 -15 -15 -16 -16 -17 -17 -17 -18 -18 -18 -18 -19 -19 -19 -18 -18 -18 -18 -18 -18 -18 -18 -18 -19 -19 -19 -19 -19 -19 -19 -18 -18 -18 -19 -19 -19 -19
-14 -14 -14 -15 -15 -15 -15 -15 -15 -15 -15 -15 -15 -15 -15 -16 -16 -16 -17 -17 -17 -18 -18 -18 -19 -19 -19 -19 -20 -20 -20 -20 -20 -20 -20 -20 -19 -19 -19 -19 -19 -19 -19 -19 -19 -19 -19 -19 -19 -19 -19 -20 -20 -20
Height
3010 3018 3026 3033 3039 3046 3053 3059 3065 3070 3076 3081 3085 3089 3093 3097 3099 3102 3105 3107 3110 3111 3113 3115 3118 3120 3122 3125 3126 3127 3130 3129 3131 3133 3134 3134 3134 3135 3135 3136 3135 3135 3134 3132 3132 3130 3125 3120 3119 3119 3117 3111 3106 3104
3008 3015 3023 3030 3037 3043 3049 3055 3061 3066 3072 3077 3082 3086 3089 3093 3097 3100 3103 3105 3107 3109 3112 3113 3115 3117 3119 3121 3123 3124 3126 3126 3127 3128 3130 3130 3130 3130 3130 3132 3132 3132 3129 3130 3128 3124 3123 3118 3113 3109 3105 3104 3100 3098
3005 3013 3020 3026 3033 3039 3045 3051 3057 3062 3067 3073 3078 3082 3086 3090 3093 3097 3100 3102 3105 3107 3109 3110 3111 3114 3116 3118 3119 3121 3122 3122 3124 3124 3125 3126 3127 3126 3125 3124 3125 3124 3124 3121 3119 3115 3114 3110 3108 3102 3101 3096 3092 3089
3005 3009 3016 3023 3030 3036 3041 3047 3053 3058 3063 3068 3073 3078 3082 3086 3090 3093 3095 3099 3101 3104 3104 3105 3107 3109 3112 3113 3114 3116 3116 3118 3119 3120 3119 3120 3121 3119 3117 3119 3119 3119 3117 3114 3110 3109 3106 3105 3099 3097 3094 3090 3087 3082
3004 3008 3014 3020 3026 3032 3038 3044 3049 3054 3059 3064 3069 3073 3077 3081 3085 3089 3091 3094 3097 3101 3098 3101 3103 3104 3106 3108 3109 3110 3111 3113 3113 3114 3112 3114 3114 3115 3108 3109 3108 3110 3108 3107 3101 3100 3098 3096 3092 3089 3087 3083 3080 3078
3005 3009 3012 3017 3023 3028 3034 3039 3045 3050 3056 3060 3064 3069 3073 3076 3080 3084 3087 3089 3092 3094 3096 3097 3098 3098 3100 3102 3104 3105 3105 3106 3107 3106 3107 3106 3105 3108 3101 3097 3100 3099 3100 3098 3095 3091 3090 3088 3085 3082 3080 3077 3074 3072
3006 3009 3012 3015 3019 3024 3029 3035 3040 3046 3051 3056 3060 3064 3068 3072 3075 3077 3080 3084 3087 3089 3091 3091 3090 3091 3094 3096 3097 3098 3099 3099 3101 3099 3096 3098 3099 3099 3091 3088 3092 3090 3089 3088 3086 3083 3081 3078 3076 3075 3074 3071 3068 3065
3007 3009 3011 3014 3016 3019 3024 3030 3036 3041 3047 3052 3055 3059 3063 3066 3069 3072 3074 3078 3081 3084 3086 3084 3081 3085 3088 3087 3089 3091 3091 3092 3090 3090 3087 3089 3090 3088 3081 3081 3082 3082 3080 3079 3077 3075 3075 3072 3071 3068 3066 3064 3061 3058
3005 3008 3010 3012 3014 3016 3019 3024 3030 3036 3042 3046 3051 3054 3057 3058 3060 3066 3069 3072 3075 3079 3076 3073 3075 3078 3080 3080 3083 3084 3084 3084 3082 3080 3081 3082 3077 3073 3074 3076 3074 3074 3073 3072 3070 3070 3068 3067 3065 3064 3062 3058 3054 3049
3003 3006 3008 3010 3012 3014 3017 3019 3023 3029 3036 3040 3044 3047 3047 3049 3056 3063 3064 3066 3066 3066 3066 3065 3067 3070 3074 3075 3076 3080 3077 3078 3073 3073 3073 3068 3061 3064 3067 3068 3068 3067 3066 3065 3065 3064 3062 3062 3061 3058 3054 3050 3046 3042
3000 3003 3005 3008 3010 3011 3015 3016 3019 3024 3028 3030 3034 3038 3040 3043 3051 3054 3056 3057 3057 3055 3053 3053 3057 3063 3065 3068 3071 3072 3069 3069 3066 3063 3065 3058 3052 3058 3060 3060 3061 3061 3061 3060 3060 3059 3058 3056 3053 3049 3046 3043 3038 3033
2997 3000 3003 3006 3008 3009 3010 3013 3015 3019 3022 3025 3028 3031 3036 3036 3039 3042 3040 3044 3043 3043 3042 3042 3048 3055 3056 3059 3062 3062 3062 3060 3057 3055 3055 3050 3050 3053 3053 3054 3054 3054 3055 3055 3054 3054 3052 3049 3046 3042 3039 3035 3030 3024
2995 2999 3002 3004 3005 3007 3008 3009 3012 3015 3017 3020 3022 3024 3025 3026 3025 3024 3026 3027 3028 3027 3030 3035 3042 3046 3048 3051 3051 3052 3051 3051 3050 3049 3046 3047 3046 3048 3048 3048 3049 3049 3050 3049 3048 3046 3044 3042 3038 3034 3030 3026 3021 3016
2995 2998 3001 3003 3004 3005 3007 3008 3010 3012 3014 3015 3015 3016 3018 3016 3016 3016 3017 3018 3021 3024 3029 3032 3037 3039 3040 3041 3044 3044 3044 3045 3044 3043 3042 3043 3043 3043 3043 3044 3044 3044 3044 3043 3041 3039 3036 3033 3029 3025 3021 3017 3012 3008
2993 2996 2999 3001 3003 3004 3006 3008 3010 3011 3012 3012 3012 3011 3013 3013 3015 3016 3017 3018 3021 3024 3027 3028 3031 3034 3035 3038 3038 3039 3040 3039 3038 3039 3040 3041 3040 3040 3039 3040 3040 3039 3037 3035 3033 3030 3028 3024 3021 3017 3012 3008 3004 3000
2991 2994 2997 2999 3002 3003 3005 3006 3008 3010 3009 3011 3011 3011 3013 3015 3016 3018 3019 3020 3022 3024 3025 3027 3029 3032 3034 3035 3034 3034 3035 3035 3036 3037 3037 3037 3036 3036 3035 3035 3034 3033 3030 3028 3025 3022 3018 3015 3011 3008 3004 2999 2996 2992
2988 2994 2996 2999 3000 3001 3003 3007 3007 3007 3009 3009 3010 3012 3014 3015 3017 3019 3020 3022 3023 3026 3027 3027 3029 3031 3032 3031 3032 3032 3033 3034 3034 3033 3032 3031 3032 3031 3030 3029 3028 3026 3023 3019 3017 3013 3010 3006 3002 2999 2995 2991 2987 2983
2986 2990 2993 2996 2999 3000 3002 3003 3006 3006 3007 3009 3010 3012 3013 3015 3016 3019 3021 3022 3023 3025 3026 3028 3030 3028 3028 3028 3029 3030 3028 3029 3030 3029 3028 3028 3027 3026 3025 3023 3020 3017 3014 3011 3008 3005 3001 2998 2994 2990 2986 2983 2980 2976
2982 2986 2989 2993 2996 2999 3001 3003 3005 3005 3006 3008 3010 3012 3013 3014 3016 3018 3020 3021 3021 3023 3024 3025 3026 3023 3025 3026 3025 3023 3023 3024 3026 3025 3024 3022 3021 3018 3017 3015 3012 3010 3006 3004 3000 2997 2994 2990 2986 2983 2979 2976 2973 2969
2979 2984 2987 2990 2994 2997 2999 3001 3000 3002 3003 3006 3008 3009 3010 3012 3013 3015 3016 3018 3018 3019 3020 3019 3019 3021 3022 3020 3020 3019 3020 3020 3020 3019 3017 3014 3012 3010 3009 3007 3005 3001 2998 2995 2992 2988 2985 2981 2979 2975 2972 2969 2965 2961
2976 2980 2985 2988 2991 2994 2996 2996 2998 3000 3002 3003 3005 3006 3008 3009 3010 3012 3013 3014 3014 3013 3013 3014 3016 3016 3014 3014 3014 3014 3014 3014 3013 3011 3009 3007 3006 3003 3001 2999 2996 2993 2990 2987 2984 2981 2978 2975 2972 2968 2965 2961 2957 2953
2974 2977 2981 2985 2988 2991 2994 2995 2997 2998 3000 3001 3003 3004 3005 3006 3007 3008 3009 3008 3008 3010 3010 3009 3009 3009 3008 3008 3008 3008 3008 3007 3006 3005 3003 3000 2998 2995 2993 2991 2988 2985 2982 2980 2976 2973 2970 2967 2963 2959 2956 2952 2948 2944
2973 2974 2977 2981 2986 2989 2991 2993 2995 2996 2998 2999 3001 3002 3002 3003 3003 3004 3003 3003 3005 3005 3004 3004 3003 3003 3003 3003 3003 3003 3002 3001 2999 2997 2995 2993 2990 2988 2985 2983 2980 2977 2973 2971 2968 2964 2960 2957 2953 2950 2946 2942 2939 2936
2971 2973 2975 2976 2980 2983 2987 2990 2993 2995 2996 2997 2999 2999 2999 3000 3000 2999 2999 3001 3001 3000 2999 2999 2999 2998 2998 2998 2997 2997 2996 2994 2992 2990 2987 2985 2982 2980 2977 2974 2971 2967 2964 2960 2958 2954 2950 2947 2944 2941 2938 2934 2930 2927
2970 2972 2974 2975 2979 2984 2986 2988 2990 2991 2993 2994 2995 2996 2995 2996 2996 2995 2996 2996 2996 2996 2995 2995 2995 2995 2994 2993 2992 2990 2988 2987 2985 2982 2980 2978 2973 2969 2966 2964 2960 2957 2954 2950 2948 2944 2941 2938 2935 2932 2929 2925 2922 2919
2965 2969 2974 2975 2979 2982 2983 2985 2987 2988 2989 2991 2991 2992 2992 2993 2993 2992 2991 2990 2991 2992 2992 2991 2990 2989 2988 2986 2984 2982 2981 2978 2975 2971 2969 2966 2961 2957 2953 2950 2948 2946 2943 2940 2936 2933 2930 2928 2925 2923 2920 2917 2914 2911
2967 2970 2972 2974 2976 2979 2980 2982 2984 2985 2986 2987 2987 2989 2990 2989 2989 2988 2987 2987 2987 2987 2986 2984 2983 2982 2980 2978 2976 2973 2970 2967 2963 2958 2954 2951 2948 2943 2941 2938 2935 2933 2931 2928 2925 2923 2920 2918 2916 2913 2911 2908 2906 2903
2968 2970 2973 2975 2976 2977 2979 2980 2981 2982 2983 2984 2985 2985 2986 2985 2986 2984 2983 2982 2981 2980 2979 2978 2976 2974 2971 2968 2964 2960 2957 2954 2951 2947 2943 2939 2933 2931 2930 2927 2924 2922 2920 2917 2916 2913 2911 2909 2907 2904 2902 2900 2898 2895
2969 2971 2973 2974 2976 2977 2978 2979 2980 2981 2982 2982 2982 2982 2981 2980 2980 2979 2978 2976 2975 2974 2971 2969 2966 2963 2959 2956 2952 2948 2946 2942 2940 2936 2932 2928 2924 2922 2919 2916 2914 2912 2910 2908 2906 2904 2902 2900 2898 2896 2894 2892 2890 2888
2970 2972 2973 2974 2975 2975 2976 2977 2977 2978 2977 2977 2977 2976 2974 2973 2972 2971 2969 2968 2966 2963 2961 2958 2955 2953 2950 2947 2944 2939 2936 2933 2929 2926 2922 2919 2915 2912 2910 2907 2905 2903 2900 2898 2896 2895 2892 2891 2889 2888 2886 2884 2882 2880
2971 2971 2972 2972 2972 2973 2972 2972 2972 2972 2972 2971 2970 2969 2966 2964 2962 2961 2960 2957 2955 2953 2950 2948 2945 2943 2941 2938 2935 2932 2928 2924 2921 2917 2913 2910 2907 2904 2901 2898 2896 2893 2891 2889 2887 2885 2884 2883 2882 2880 2878 2877 2875 2872
2968 2968 2968 2968 2968 2968 2967 2966 2966 2965 2964 2963 2961 2960 2957 2955 2953 2952 2950 2948 2946 2944 2942 2940 2937 2935 2932 2929 2925 2922 2918 2915 2911 2908 2904 2901 2898 2895 2893 2890 2888 2885 2883 2881 2880 2878 2877 2876 2874 2872 2871 2869 2867 2865
2963 2963 2963 2963 2962 2962 2961 2960 2958 2957 2956 2954 2953 2952 2949 2947 2945 2944 2942 2940 2939 2937 2935 2932 2929 2926 2922 2918 2915 2911 2907 2904 2900 2897 2894 2891 2888 2886 2884 2881 2879 2878 2876 2874 2872 2871 2869 2868 2867 2865 2863 2862 2860 2858
Wind_Speed
43 36 38 35 35 39 39 38 36 33 30 26 24 22 21 21 20 19 17 16 17 18 16 19 21 18 17 17 16 17 15 16 16 14 11 9 9 8 7 5 8 7 6 7 6 7 8 6 9 17 19 24 30 34
36 37 38 36 35 34 36 37 36 35 32 29 27 24 22 22 21 20 19 18 17 17 13 16 17 18 19 19 16 16 15 12 13 12 15 10 11 9 10 5 7 8 12 8 9 14 19 26 29 26 24 28 29 28
31 35 39 32 34 33 32 32 34 35 32 31 29 26 24 22 22 21 20 19 19 18 17 16 18 17 17 16 16 18 18 20 18 19 16 17 17 16 16 16 14 18 14 24 21 21 22 23 21 24 31 32 34 26
25 28 33 38 34 33 31 30 30 30 31 31 30 28 26 24 22 21 21 20 20 19 21 19 18 21 19 19 19 19 20 19 20 22 24 24 23 20 24 21 19 24 16 23 29 27 25 21 25 27 31 27 32 34
18 22 29 31 38 35 32 31 30 29 29 29 29 29 28 26 24 23 22 22 21 22 13 21 24 21 20 20 20 21 21 22 22 23 26 26 26 27 34 31 34 30 24 24 28 26 28 27 33 26 24 27 31 27
11 9 16 28 33 33 35 36 32 31 28 28 28 28 29 27 26 25 25 25 24 23 25 24 21 20 21 24 25 26 25 25 23 27 28 27 28 27 25 34 37 30 24 25 23 29 28 36 32 18 23 24 27 29
9 9 11 16 24 34 35 37 33 32 30 30 29 29 28 27 27 28 27 27 25 25 26 26 25 30 26 25 26 25 26 29 28 30 33 31 30 29 35 40 35 31 32 28 27 29 27 25 22 23 23 26 30 28
10 9 8 10 14 23 34 38 37 33 31 31 30 30 28 29 30 29 29 27 23 24 27 23 18 22 24 28 28 29 30 30 32 33 36 33 30 32 34 39 33 29 27 23 26 20 23 20 21 21 25 27 29 31
14 12 10 9 9 13 21 33 41 38 33 30 29 28 29 33 34 30 27 27 28 28 24 28 33 27 26 26 23 23 24 27 31 34 34 33 34 33 31 27 29 28 27 27 23 23 24 17 20 25 27 28 33 37
19 16 13 12 10 11 14 20 29 35 42 38 33 34 37 37 32 26 27 29 32 35 38 40 35 29 25 20 21 24 24 20 20 27 28 34 43 39 32 29 28 26 26 21 24 22 17 20 24 26 29 32 37 39
19 19 17 15 14 11 15 15 21 30 32 35 35 38 39 38 31 30 28 24 26 31 36 45 43 35 31 26 22 22 22 15 17 23 20 16 27 27 18 16 19 20 18 19 18 18 20 23 26 29 33 36 38 38
20 18 16 15 16 13 13 16 20 27 31 43 42 43 39 26 26 18 19 23 27 26 33 29 34 34 37 36 33 31 28 11 10 13 10 9 18 12 13 16 15 16 17 18 18 20 23 26 29 32 35 36 37 37
18 17 15 13 14 13 12 14 15 19 20 29 42 35 20 21 15 16 20 21 24 25 28 29 28 23 28 30 28 17 11 10 8 8 8 9 17 16 16 14 15 17 18 18 20 23 26 28 31 35 34 35 36 37
16 16 14 13 11 10 8 9 12 14 16 20 18 18 13 7 9 9 15 21 25 26 21 19 25 28 25 22 10 8 9 7 6 6 11 14 16 16 16 15 14 15 16 18 23 26 29 32 33 33 35 35 36 34
18 17 15 13 13 12 11 8 9 11 10 9 9 6 5 5 8 9 11 13 15 17 21 22 20 10 8 6 7 6 5 6 5 5 12 12 13 13 13 13 15 16 19 24 28 32 33 32 34 35 35 36 34 32
20 19 17 14 14 16 15 12 9 12 8 8 4 8 10 11 10 9 9 9 9 9 9 9 6 3 7 6 6 8 5 4 9 15 15 15 14 13 14 16 17 20 26 30 33 32 33 34 35 36 36 33 32 32
25 20 20 18 15 13 15 12 12 11 5 5 7 9 12 5 8 10 7 7 8 6 10 6 3 6 4 6 8 12 18 20 20 19 17 15 15 16 18 19 25 30 32 32 32 33 35 35 36 35 34 31 31 31
21 23 19 21 19 17 15 18 16 7 8 7 7 4 3 2 3 3 3 2 3 4 8 12 11 12 9 9 14 18 19 17 16 16 15 17 19 21 25 30 31 30 31 32 33 33 33 34 34 32 30 30 31 34
17 23 21 23 19 16 22 14 18 9 9 8 7 5 4 5 7 7 7 7 8 9 12 17 12 12 13 17 20 20 19 17 17 19 21 22 25 27 27 27 28 29 30 30 30 31 32 32 31 28 27 30 33 35
17 23 18 22 21 18 17 17 12 14 8 9 9 9 9 9 10 12 14 15 15 16 18 21 20 17 18 19 19 19 22 22 22 23 23 23 23 23 24 25 26 28 30 30 30 29 29 27 25 27 31 35 37 36
18 22 26 25 22 18 12 6 10 10 11 10 10 10 10 10 11 12 14 14 16 20 19 17 15 15 19 20 20 20 19 19 19 20 21 22 23 25 26 27 27 28 29 30 28 28 27 28 30 33 36 37 36 35
25 16 29 30 26 21 18 12 13 11 11 8 10 11 11 12 13 14 14 18 20 16 16 15 14 16 18 17 17 16 16 18 20 21 23 25 27 27 27 27 29 29 28 29 31 34 35 35 37 38 37 37 37 34
20 19 20 32 23 25 19 17 15 13 10 10 11 11 13 13 13 13 16 16 12 12 14 14 14 14 13 14 15 16 18 19 21 23 26 27 28 28 28 29 30 32 34 35 36 36 37 36 35 35 36 36 34 33
16 20 28 17 13 13 14 16 16 14 13 12 12 13 14 14 14 15 18 15 10 12 13 14 14 14 16 16 17 19 21 22 25 28 29 29 30 31 31 34 36 36 34 31 32 35 35 33 33 33 33 33 33 33
24 16 10 11 14 13 12 12 13 13 14 13 12 13 11 11 12 14 12 9 10 10 11 11 11 12 14 18 20 23 25 28 30 33 35 37 41 42 40 37 36 36 35 36 35 36 35 33 34 35 35 34 31 29
6 8 8 12 13 12 13 11 12 13 12 11 11 12 11 12 11 7 7 9 10 9 10 14 15 17 19 23 26 28 30 33 37 42 46 46 45 44 43 41 39 36 36 36 36 35 34 34 34 33 32 29 28 28
8 7 11 10 10 10 10 11 10 10 10 11 14 12 10 7 7 11 11 12 13 16 19 20 22 24 27 30 33 36 42 46 47 47 45 43 41 40 39 39 37 37 36 36 34 31 31 31 30 29 29 29 28 27
6 9 10 10 9 8 6 6 9 9 9 10 10 9 6 7 12 13 14 17 20 22 24 27 30 33 37 41 43 44 42 38 34 34 35 35 35 35 34 34 33 33 32 31 31 29 29 29 29 29 27 25 24 25
9 8 7 7 7 8 8 9 9 10 9 10 12 14 18 21 21 22 23 26 28 31 33 34 37 37 36 37 37 35 35 35 34 33 32 32 31 30 29 30 30 31 31 32 31 31 30 30 28 25 23 22 24 26
5 4 6 7 8 9 10 11 12 14 16 18 20 22 24 25 26 27 29 30 32 34 35 33 33 32 30 29 31 34 33 33 33 33 31 29 28 28 27 29 30 30 30 30 31 31 29 26 23 22 22 22 24 27
6 7 9 10 12 13 15 17 18 19 20 20 20 22 26 28 30 31 32 32 31 30 31 29 26 25 27 29 31 31 32 33 34 34 32 30 29 28 27 27 26 26 26 25 24 23 22 21 21 21 20 22 24 26
7 8 9 11 11 11 12 13 15 18 21 22 25 24 25 26 28 28 29 29 28 25 22 24 26 30 33 33 33 34 35 36 35 33 32 31 31 30 28 26 25 24 23 22 21 21 20 20 21 20 21 22 23 23
5 7 9 11 14 17 18 20 22 23 22 21 22 23 23 23 23 23 21 19 19 22 27 29 32 33 34 34 34 34 34 34 34 33 33 32 32 30 26 22 21 21 22 22 21 21 21 21 22 22 21 21 22 24
Wind_Direction
194 192 200 199 201 206 208 210 212 213 215 217 218 217 217 220 217 215 215 214 216 217 214 211 218 219 218 213 223 222 217 222 227 227 229 228 224 222 234 236 285 284 274 271 228 254 278 265 280 271 287 288 295 308
181 196 200 200 201 203 207 209 213 216 218 221 221 220 219 219 218 216 216 217 219 219 220 217 217 219 216 211 216 223 219 230 222 224 227 223 227 238 257 252 254 268 255 255 248 271 286 299 297 295 285 299 301 308
191 195 202 197 203 205 206 208 212 215 217 220 222 220 219 218 219 218 219 219 221 225 226 225 222 226 227 230 238 241 243 245 249 243 238 246 250 261 257 269 275 285 269 267 281 288 294 280 283 279 291 307 313 304
192 182 194 200 201 206 207 209 212 214 215 219 221 220 217 217 219 220 222 223 225 229 230 233 232 235 239 240 243 247 251 251 250 249 252 254 257 266 264 270 268 288 282 280 278 284 290 282 274 273 299 305 312 316
191 197 191 202 206 205 205 211 213 215 216 215 217 218 217 215 217 222 223 225 225 222 235 241 242 241 241 243 247 251 255 256 257 257 256 259 260 263 272 275 276 289 284 278 284 287 288 272 293 294 294 303 312 314
159 183 204 208 211 210 217 213 213 215 218 218 216 217 219 218 218 222 226 227 228 230 236 242 247 242 244 247 252 254 255 254 254 260 262 262 266 264 266 271 283 283 286 286 274 287 284 277 291 293 300 311 312 311
174 180 193 207 214 217 217 215 215 215 216 219 219 219 221 223 224 223 227 232 230 232 236 242 250 244 244 244 248 250 257 260 260 263 262 262 266 265 266 271 285 285 294 292 293 295 286 277 289 296 308 312 310 313
206 204 198 208 211 217 218 217 217 216 220 222 223 224 224 226 228 229 232 234 234 234 237 234 238 241 248 247 248 250 253 255 257 256 260 264 263 257 263 279 284 286 291 288 295 288 282 283 305 314 315 309 307 315
221 224 223 223 221 225 220 218 220 220 218 222 225 228 230 231 231 229 231 233 234 232 231 238 242 248 248 247 247 243 242 251 255 255 259 262 261 255 270 277 282 288 284 290 288 282 292 305 309 303 302 307 313 318
226 229 235 237 234 231 230 222 220 221 221 225 225 226 231 232 233 227 228 231 235 237 239 242 244 237 242 241 240 241 245 243 250 260 263 261 264 269 272 276 277 280 284 283 285 286 291 295 299 303 306 312 315 315
224 229 234 241 246 242 232 225 219 213 210 215 215 210 226 235 234 232 230 231 230 236 246 244 244 243 239 239 232 231 241 237 243 258 236 255 262 278 277 270 274 273 274 275 272 283 292 298 302 306 308 311 312 312
216 223 230 238 246 253 252 231 218 218 217 207 210 215 213 210 206 214 205 218 231 233 237 241 243 240 238 240 242 247 230 218 233 234 211 246 268 280 279 282 269 269 266 268 278 291 296 299 301 303 307 309 311 313
213 216 221 230 240 247 253 243 227 221 227 226 221 214 204 202 207 193 194 207 209 219 232 239 232 222 231 231 222 225 210 218 220 220 225 241 273 287 279 268 259 255 262 276 288 292 297 300 303 305 307 310 311 313
202 209 210 218 227 231 238 236 235 239 237 222 215 205 209 208 206 200 196 208 212 221 217 211 210 202 203 201 196 204 211 213 222 234 262 267 277 281 272 258 243 265 280 288 296 298 299 301 303 305 308 309 310 309
213 210 209 213 220 216 203 209 209 199 205 203 183 191 178 184 174 155 161 176 183 171 171 177 190 190 183 187 195 207 214 219 219 234 253 270 272 268 256 244 268 279 291 299 300 300 302 301 304 307 308 309 308 306
212 212 212 214 221 226 221 220 247 243 244 217 188 131 147 155 148 155 158 145 154 163 165 173 185 202 211 216 208 201 199 211 257 280 281 288 279 250 260 272 280 292 299 300 301 301 302 303 305 306 308 308 306 306
221 222 221 217 218 219 221 215 207 187 162 149 148 146 145 138 126 141 149 149 142 169 199 189 179 210 223 226 218 240 254 270 275 277 279 277 273 279 283 286 294 297 298 299 300 301 303 305 306 306 306 306 305 309
226 223 220 212 222 220 218 228 236 220 216 174 167 191 238 243 152 141 167 194 216 214 220 228 238 227 225 240 259 271 270 270 274 279 281 284 285 285 288 292 295 297 300 301 303 305 305 305 304 303 303 305 310 314
213 214 220 212 216 212 208 231 214 202 199 197 192 175 165 170 182 200 214 224 234 236 238 239 241 245 254 259 263 266 270 274 279 282 284 286 286 288 291 294 296 299 302 304 305 305 305 304 302 302 301 305 311 314
203 206 209 203 208 206 219 232 222 224 225 218 201 199 207 213 220 221 227 234 238 241 240 244 250 264 271 271 271 273 279 281 282 283 285 287 290 292 293 298 301 302 303 305 308 308 309 309 308 305 306 309 311 312
193 206 196 202 209 214 206 199 190 195 196 200 203 213 223 230 237 241 242 242 241 243 254 275 282 268 261 265 273 277 279 279 279 281 287 290 293 298 301 303 304 306 307 307 308 307 308 308 307 306 306 308 308 308
211 214 197 203 207 210 214 210 202 203 202 207 210 221 233 241 247 250 256 254 261 282 284 279 274 271 273 275 277 275 274 278 287 292 294 295 298 301 303 304 305 307 306 304 303 302 301 303 303 303 304 305 305 304
217 235 207 190 203 210 214 206 203 205 208 221 230 243 251 255 258 263 263 272 286 286 280 279 276 278 281 279 278 279 284 286 288 293 297 299 299 301 301 301 300 299 297 298 298 299 301 300 299 301 304 304 302 305
212 209 193 184 177 172 178 203 211 217 230 237 240 240 248 253 260 263 268 285 286 274 271 274 278 278 276 276 276 279 279 281 291 298 302 306 304 303 300 298 296 296 299 299 300 300 301 297 300 304 305 304 304 305
178 171 150 156 169 188 193 201 214 226 235 238 238 238 249 253 257 266 278 276 251 253 257 262 269 278 283 284 284 283 282 283 291 297 302 305 301 300 298 296 294 293 293 296 299 298 296 293 293 297 301 302 301 302
121 134 157 179 185 192 206 215 223 227 231 233 240 246 255 254 256 256 234 252 260 271 287 295 291 290 288 284 285 282 282 284 286 291 297 298 297 296 294 293 293 293 292 295 295 295 294 291 292 295 298 297 297 301
150 160 183 181 190 203 208 218 225 230 232 236 247 248 254 246 248 244 252 253 271 286 295 296 292 290 288 288 287 287 289 293 297 299 300 300 295 289 288 289 290 291 293 292 292 292 291 294 292 294 297 296 296 299
164 170 176 185 194 206 220 232 231 230 234 238 236 229 230 229 238 265 270 273 279 284 285 287 288 289 290 291 293 295 298 300 302 302 305 307 296 291 291 291 291 292 292 290 289 289 289 290 293 296 295 295 297 301
160 170 184 194 203 205 208 214 215 221 235 246 254 257 259 268 272 273 274 276 281 283 286 289 291 293 294 295 296 297 301 303 303 303 303 303 298 294 291 289 288 287 287 286 286 288 289 291 292 289 288 292 299 303
142 162 190 205 213 226 234 243 249 250 256 261 267 273 276 278 281 281 283 284 286 289 291 293 294 295 294 293 294 300 301 302 305 306 305 303 299 295 291 287 286 286 286 287 286 287 287 285 283 284 287 296 302 306
218 229 239 243 247 250 256 259 262 266 269 274 277 276 275 281 283 285 288 290 291 292 295 295 295 296 296 299 300 300 302 303 302 300 299 300 299 298 298 296 294 294 293 291 289 287 283 282 281 284 295 302 305 307
262 264 272 273 273 272 273 277 280 282 284 283 283 284 284 284 286 288 290 292 293 291 288 295 298 300 302 303 301 301 301 302 299 294 294 294 294 293 294 296 297 296 294 292 290 287 286 285 287 294 300 302 304 307
297 297 297 294 293 294 294 293 292 293 292 292 291 290 288 287 289 292 294 295 295 296 298 300 302 305 307 308 308 307 306 304 302 300 296 293 290 288 287 288 292 295 297 295 290 289 289 287 289 292 294 296 302 308